This is the latest recevied weather packets stored in our database for station/object EA1BVF-10. If no packets are shown the sender has not sent any weather packets the latest 10 day(s).
| Time | Temp. | Humidity | Pressure | Rain* | Wind** | Luminosity | Snow |
|---|---|---|---|---|---|---|---|
| 1787401895 | 15° C | 96% | 1032.7 hPa | - | - | - | - |
| 1787400095 | 14.44° C | 97% | 1032.7 hPa | - | - | - | - |
| 1787398348 | 14.44° C | 98% | 1032.9 hPa | - | - | - | - |
| 1787398295 | 14.44° C | 98% | 1032.9 hPa | - | - | - | - |
| 1787396495 | 13.89° C | 98% | 1033 hPa | - | - | - | - |
| 1787394702 | 13.33° C | 98% | 1033 hPa | - | - | - | - |
| 1787392894 | 13.33° C | 98% | 1033 hPa | - | - | - | - |
| 1787391094 | 12.78° C | 97% | 1032.7 hPa | - | - | - | - |
| 1787389294 | 12.22° C | 97% | 1032.6 hPa | - | - | - | - |
| 1787387558 | 12.22° C | 97% | 1032.4 hPa | - | - | - | - |
| 1787387496 | 12.22° C | 97% | 1032.4 hPa | - | - | - | - |
| 1787385694 | 12.22° C | 98% | 1032.5 hPa | - | - | - | - |
| 1787383894 | 11.67° C | 99% | 1032.6 hPa | - | - | - | - |
| 1787382094 | 11.67° C | 99% | 1032.5 hPa | - | - | - | - |
| 1787380294 | 11.67° C | 98% | 1032.5 hPa | - | - | - | - |
| 1787378494 | 11.11° C | 98% | 1032.5 hPa | - | - | - | - |
| 1787363931 | 12.22° C | 98% | 1032.7 hPa | - | - | - | - |
| 1787363203 | 12.22° C | 98% | 1032.8 hPa | - | - | - | - |
| 1787361402 | 12.22° C | 98% | 1033.1 hPa | - | - | - | - |
| 1787359602 | 12.22° C | 98% | 1033.3 hPa | - | - | - | - |
| 1787357802 | 12.22° C | 98% | 1033.4 hPa | - | - | - | - |
* Rain since midnight (hover to see other rain measurements)
** Current wind speed in m/s (hover to see current wind gust speed)